KE8TTQ-1 Weather Reports


time (UTC)temp
C
wind
direction
speed
KPH
gust
KPH
rain 1hr
cm
rain 24hr
cm
rain mn
cm
humidity
%
barometer
mb
20260507103432 6 0.0 0.0 0.00 0.00 0.00 10 1015.9
20260507101432 6 0.0 0.0 0.00 0.00 0.00 10 1015.9
20260507093433 7 0.0 0.0 0.00 0.00 0.00 10 1015.9
20260507085433 7 0.0 0.0 0.00 0.00 0.00 10 1015.5
20260507081432 7 0.0 0.0 0.00 0.00 0.00 10 1015.5
20260507075432 7 0.0 0.0 0.00 0.00 0.00 10 1015.5
20260507073432 7 0.0 0.0 0.00 0.00 0.00 10 1015.2
20260507071434 8 0.0 0.0 0.00 0.00 0.00 10 1015.5
20260507065432 7 0.0 0.0 0.00 0.00 0.00 10 1015.5
20260507063432 7 0.0 0.0 0.00 0.00 0.00 10 1015.5
20260507061433 8 0.0 0.0 0.00 0.00 0.00 10 1015.5
20260507055432 8 0.0 0.0 0.00 0.00 0.00 10 1015.5
20260507053433 7 0.0 0.0 0.00 0.00 0.00 10 1015.9
20260507043432 8 0.0 0.0 0.00 0.00 0.00 10 1015.9
20260507041433 9 0.0 0.0 0.00 0.00 0.00 10 1015.9
20260507035432 9 0.0 0.0 0.00 0.00 0.00 10 1015.9
20260507033432 9 0.0 0.0 0.00 0.00 0.00 10 1015.5
20260507031431 10 0.0 0.0 0.00 0.00 0.00 10 1015.5
20260507015431 12 0.0 0.0 0.00 0.00 0.00 93 1015.5
20260507013431 13 0.0 0.0 0.00 0.00 0.00 90 1015.2
20260507011431 13 0.0 0.0 0.00 0.00 0.00 80 1014.9
20260507005431 13 0.0 0.0 0.00 0.00 0.00 67 1014.9
20260507003431 14 0.0 0.0 0.00 0.00 0.00 64 1014.9
20260507001433 14 0.0 0.0 0.00 0.00 0.00 61 1014.5
20260506235432 14 0.0 0.0 0.00 0.00 0.00 60 1014.2
20260506231432 15 0.0 0.0 0.00 0.00 0.00 58 1013.5
20260506225431 15 0.0 0.0 0.00 0.00 0.00 58 1013.5
20260506223431 15 0.0 0.0 0.00 0.00 0.00 58 1013.5
20260506221431 16 0.0 0.0 0.00 0.00 0.00 53 1013.8
20260506215432 16 0.0 0.0 0.00 0.00 0.00 52 1013.8
20260506213431 17 0.0 0.0 0.00 0.00 0.00 52 1013.8
20260506211431 17 0.0 0.0 0.00 0.00 0.00 51 1013.2
20260506205431 17 0.0 0.0 0.00 0.00 0.00 49 1013.5
20260506203431 18 0.0 0.0 0.00 0.00 0.00 50 1013.5
20260506193431 17 0.0 0.0 0.00 0.00 0.00 56 1013.5
20260506185431 17 0.0 0.0 0.00 0.00 0.00 57 1013.2
20260506183431 17 0.0 0.0 0.00 0.00 0.00 60 1013.2
20260506181430 18 0.0 0.0 0.00 0.00 0.00 64 1013.2
20260506175430 17 0.0 0.0 0.00 0.00 0.00 61 1013.5
20260506173431 19 0.0 0.0 0.00 0.00 0.00 52 1013.5
20260506165431 18 0.0 0.0 0.00 0.00 0.00 57 1013.8
20260506163430 20 0.0 0.0 0.00 0.00 0.00 56 1013.5
20260506161431 19 0.0 0.0 0.00 0.00 0.00 62 1013.8
20260506155430 20 0.0 0.0 0.00 0.00 0.00 64 1013.8
20260506151430 14 0.0 0.0 0.00 0.00 0.00 10 1013.5
20260506145430 15 0.0 0.0 0.00 0.00 0.00 10 1013.2
20260506133430 12 0.0 0.0 0.00 0.00 0.00 10 1012.5
20260506131429 12 0.0 0.0 0.00 0.00 0.00 10 1012.1
20260506125430 10 0.0 0.0 0.00 0.00 0.00 10 1012.1
20260506123429 10 0.0 0.0 0.00 0.00 0.00 10 1011.8
20260506115430 10 0.0 0.0 0.00 0.00 0.00 10 1011.1
20260506113430 10 0.0 0.0 0.00 0.00 0.00 10 1010.5
20260506111429 9 0.0 0.0 0.00 0.00 0.00 10 1010.1